FENGYUN 1C DEB, 35175

Orbit data source: Space-Track

FENGYUN 1C DEB, 35175 is space debris in SSO originally from a launch on Mon, 10 May 1999 UTC launched from the Taiyaun Space Center, China (TSC). Fengyun 1C debris stems from the Chinese weather satellite Fengyun-1C, which was intentionally destroyed by a Chinese anti-satellite missile in 2007. This event dramatically increased the amount of space debris, with thousands of trackable fragments posing hazards to satellites and human spaceflight. The Fengyun 1C debris cloud has become a focal point in discussions about space sustainability and the need for international regulations to prevent the creation of new debris.

Loading next visibility...
Identifier
35175, 1999-025DNF
Orbit
SSO
Country
Flag of CNCN / PRC
Related business
Manufacturer
Unknown
Mission
Spacecraft
Bus & Motor
Unknown
Mass
Unknown
Launch date (UTC)
1999-05-10 (27 years ago)
Launch vehicle
Unknown
Launch site
Taiyaun Space Center, China (TSC)
Object type
Payload
Rocket body
Debris
Shape & HBR
Unknown shape, 0.1 m
Radar Cross Section
Small (<0.1 m²)

Expand to show TLE details & history
Last TLE update: 3 days ago

TLE from 3 days ago
0 FENGYUN 1C DEB
1 35175U 99025DNF 26121.74992011  .00000590  00000-0  28438-3 0  9993
2 35175  98.5722 131.0915 0056765 233.0836 126.5134 14.21539982632243
Epoch: 2026-05-01T17:59Z
TLE epoch observation values (Epoch: 2026-05-01T17:59:53.097Z)
Latitude
0.00003°
Longitude
1.44256°
Altitude
847.537 km
Speed
7.416 km/s
True Right ascension
08h 44m 21s
True Declination
0° 00' 00"
Sunlit
Object was in daylight at epoch
Visualization orbit readout
Latitude
Unknown
Longitude
Unknown
Altitude
Unknown
Speed
Unknown
Apparent Right ascension
Unknown
Apparent Declination
Unknown
Sunlit
N/A
Visualization observer readout
Local Sidereal Time
15:49:04
Azimuth
Unknown
Elevation
Unknown
Doppler factor
Unknown
Orbital elements
Apogee altitude
858.144 km
Perigee altitude
776.454 km
Semi-major axis
7,195.436 km
Eccentricity
0.00568
Inclination
98.5722°
RAAN
131.0915°
Arg. of periapsis
233.0836°
True anomaly
127.034°
Mean anomaly
126.5134°
Eccentric anomaly
126.77392°
Mean motion
3.55596 °/min
Orbital period
101.24 mins
BSTAR
0.00028438
Loading maneuver chart data...
Computing Atmospheric mass density...
Loading historical data...
Loading historical data...
Loading historical data...
Loading historical data...
Loading historical data...
Loading historical data...
Loading historical data...

Documentation

Showing up to 5 results
|